sat.trackr.live / text

‹ back to catalog

TRANSPORTER-14 OBJECT BR

NORAD 69093 · 2025-135BW

PAYLOAD ACTIVE UNKNOWN

§ Identity

Operator
Country
US
Launch date
2025-06-23
Launch site
AFWTR
Launch vehicle
Mass (kg)
RCS (m²)

External: N2YO · Heavens-Above · Gunter

§ Orbital elements

Epoch: 2026-05-30T06:38:31.672608Z

Period
89.78 min
Inclination
97.4143°
Eccentricity
0.0183315
Mean motion
16.03833545 rev/d
Perigee alt
142.1 km
Apogee alt
385.6 km
Semi-major
6,642.0 km
B*
3.8868e-4
RAAN
262.0509°
Arg perigee
143.0619°
Mean anomaly
218.3452°
Rev number
396

§ Raw data

TRANSPORTER-14 OBJECT BR1 69093U 25135BW  26150.27675547  .04874643  19851-5  38868-3 0  99912 69093  97.4143 262.0509 0183315 143.0619 218.3452 16.03833545  3967

JSON: /api/v1/satellites/69093 · /tle

For live sub-satellite position, see the globe view (requires WebGL).

§ Visibility from observer

Set your observer location to see the next 7 days of passes ≥ 10°. The values pass through the URL so the page stays shareable.

No JS? Fill the form by hand. The geolocation button needs JavaScript.